| time (UTC) | temp C | wind direction | speed KPH | gust KPH | rain 1hr cm | rain 24hr cm | rain mn cm | humidity % | barometer mb |
| 20260508075002 | 7 | 64 | 6.4 | 9.7 | 0.00 | 0.03 | 0.03 | 81 | 1012.9 |
| 20260508074525 | 7 | 60 | 4.8 | 11.3 | 0.00 | 0.03 | 0.03 | 81 | 1012.9 |
| 20260508074004 | 7 | 86 | 4.8 | 12.9 | 0.00 | 0.03 | 0.03 | 81 | 1013.0 |
| 20260508073506 | 7 | 75 | 4.8 | 12.9 | 0.00 | 0.03 | 0.03 | 80 | 1012.9 |
| 20260508073016 | 7 | 50 | 4.8 | 14.5 | 0.00 | 0.03 | 0.03 | 80 | 1012.8 |
| 20260508072506 | 7 | 76 | 9.7 | 14.5 | 0.00 | 0.03 | 0.03 | 79 | 1012.9 |
| 20260508072007 | 7 | 111 | 3.2 | 11.3 | 0.00 | 0.03 | 0.03 | 80 | 1012.9 |
| 20260508071530 | 7 | 84 | 4.8 | 12.9 | 0.00 | 0.03 | 0.03 | 80 | 1013.0 |
| 20260508071008 | 7 | 90 | 6.4 | 20.9 | 0.00 | 0.03 | 0.03 | 79 | 1013.1 |
| 20260508070512 | 7 | 113 | 11.3 | 20.9 | 0.03 | 0.03 | 0.03 | 79 | 1013.1 |
| 20260508070030 | 7 | 83 | 11.3 | 24.1 | 0.03 | 0.03 | 0.03 | 79 | 1013.2 |
| 20260508065503 | 7 | 71 | 11.3 | 38.6 | 0.03 | 0.03 | 0.03 | 79 | 1013.2 |
| 20260508065008 | 7 | 78 | 20.9 | 38.6 | 0.03 | 0.03 | 0.03 | 78 | 1013.1 |
| 20260508064527 | 7 | 71 | 8.0 | 17.7 | 0.03 | 0.03 | 0.03 | 81 | 1013.1 |
| 20260508064011 | 7 | 84 | 9.7 | 17.7 | 0.03 | 0.03 | 0.03 | 82 | 1013.0 |
| 20260508063502 | 7 | 80 | 4.8 | 9.7 | 0.03 | 0.03 | 0.03 | 83 | 1013.2 |
| 20260508063019 | 7 | 53 | 3.2 | 6.4 | 0.03 | 0.03 | 0.03 | 83 | 1013.1 |
| 20260508062508 | 7 | 38 | 3.2 | 6.4 | 0.03 | 0.03 | 0.03 | 84 | 1013.0 |
| 20260508062009 | 6 | 34 | 3.2 | 4.8 | 0.03 | 0.03 | 0.03 | 83 | 1013.0 |
| 20260508061521 | 6 | 45 | 1.6 | 4.8 | 0.03 | 0.03 | 0.03 | 83 | 1013.1 |
| 20260508061009 | 6 | 102 | 0.0 | 3.2 | 0.03 | 0.03 | 0.03 | 84 | 1013.1 |
| 20260508060508 | 7 | 102 | 0.0 | 6.4 | 0.00 | 0.00 | 0.00 | 83 | 1013.2 |
| 20260508060019 | 7 | 102 | 0.0 | 6.4 | 0.00 | 0.00 | 0.00 | 84 | 1013.3 |
| 20260508055505 | 6 | 94 | 3.2 | 4.8 | 0.00 | 0.00 | 0.00 | 83 | 1013.3 |
| 20260508055011 | 6 | 101 | 0.0 | 0.0 | 0.00 | 0.00 | 0.00 | 81 | 1013.2 |
| 20260508054527 | 6 | 101 | 0.0 | 0.0 | 0.00 | 0.00 | 0.00 | 81 | 1013.2 |
| 20260508054007 | 6 | 101 | 0.0 | 0.0 | 0.00 | 0.00 | 0.00 | 80 | 1013.3 |
| 20260508053509 | 7 | 101 | 0.0 | 0.0 | 0.00 | 0.00 | 0.00 | 79 | 1013.3 |
| 20260508053028 | 7 | 101 | 0.0 | 0.0 | 0.00 | 0.00 | 0.00 | 81 | 1013.4 |
| 20260508052511 | 7 | 101 | 0.0 | 0.0 | 0.00 | 0.00 | 0.00 | 81 | 1013.4 |
| 20260508052008 | 7 | 101 | 0.0 | 0.0 | 0.00 | 0.00 | 0.00 | 81 | 1013.4 |
| 20260508051516 | 7 | 101 | 0.0 | 0.0 | 0.00 | 0.00 | 0.00 | 80 | 1013.4 |
| 20260508051005 | 7 | 101 | 0.0 | 0.0 | 0.00 | 0.00 | 0.00 | 81 | 1013.4 |
| 20260508050505 | 7 | 101 | 0.0 | 0.0 | 0.00 | 0.00 | 0.00 | 78 | 1013.2 |
| 20260508050027 | 7 | 101 | 0.0 | 3.2 | 0.00 | 0.00 | 0.00 | 78 | 1013.3 |
| 20260508045512 | 7 | 101 | 0.0 | 4.8 | 0.00 | 0.00 | 0.00 | 77 | 1013.3 |
| 20260508045008 | 7 | 101 | 0.0 | 6.4 | 0.00 | 0.00 | 0.00 | 77 | 1013.3 |
| 20260508044523 | 7 | 113 | 3.2 | 9.7 | 0.00 | 0.00 | 0.00 | 76 | 1013.3 |
| 20260508044008 | 8 | 105 | 3.2 | 12.9 | 0.00 | 0.00 | 0.00 | 74 | 1013.3 |
| 20260508043514 | 8 | 29 | 1.6 | 12.9 | 0.00 | 0.00 | 0.00 | 73 | 1013.4 |
| 20260508043027 | 8 | 76 | 4.8 | 9.7 | 0.00 | 0.00 | 0.00 | 72 | 1013.9 |
| 20260508042507 | 8 | 113 | 1.6 | 4.8 | 0.00 | 0.00 | 0.00 | 71 | 1013.7 |
| 20260508042012 | 8 | 133 | 1.6 | 6.4 | 0.00 | 0.00 | 0.00 | 72 | 1013.6 |
| 20260508041530 | 8 | 131 | 0.0 | 6.4 | 0.00 | 0.00 | 0.00 | 71 | 1013.5 |
| 20260508041008 | 8 | 113 | 1.6 | 6.4 | 0.00 | 0.00 | 0.00 | 71 | 1013.4 |
| 20260508040512 | 8 | 122 | 1.6 | 11.3 | 0.00 | 0.00 | 0.00 | 71 | 1013.5 |
| 20260508040013 | 8 | 127 | 3.2 | 11.3 | 0.00 | 0.00 | 0.00 | 68 | 1013.6 |
| 20260508035505 | 8 | 103 | 3.2 | 9.7 | 0.00 | 0.00 | 0.00 | 69 | 1013.5 |
| 20260508035004 | 8 | 124 | 1.6 | 12.9 | 0.00 | 0.00 | 0.00 | 69 | 1013.5 |
| 20260508034509 | 8 | 114 | 3.2 | 12.9 | 0.00 | 0.00 | 0.00 | 69 | 1013.5 |
| 20260508034003 | 8 | 101 | 1.6 | 8.0 | 0.00 | 0.00 | 0.00 | 69 | 1013.5 |
| 20260508033510 | 8 | 65 | 1.6 | 14.5 | 0.00 | 0.00 | 0.00 | 67 | 1013.4 |
| 20260508033010 | 8 | 130 | 3.2 | 14.5 | 0.00 | 0.00 | 0.00 | 68 | 1013.5 |
| 20260508032504 | 7 | 111 | 6.4 | 14.5 | 0.00 | 0.00 | 0.00 | 67 | 1013.5 |
| 20260508032010 | 7 | 137 | 3.2 | 16.1 | 0.00 | 0.00 | 0.00 | 69 | 1013.6 |
| 20260508031512 | 7 | 68 | 6.4 | 16.1 | 0.00 | 0.00 | 0.00 | 69 | 1013.5 |
| 20260508031003 | 7 | 101 | 6.4 | 16.1 | 0.00 | 0.00 | 0.00 | 70 | 1013.6 |
| 20260508030505 | 7 | 74 | 3.2 | 6.4 | 0.00 | 0.00 | 0.00 | 71 | 1013.6 |
| 20260508030020 | 6 | 40 | 1.6 | 4.8 | 0.00 | 0.00 | 0.00 | 71 | 1013.5 |
| 20260508025508 | 6 | 40 | 1.6 | 4.8 | 0.00 | 0.00 | 0.00 | 70 | 1013.4 |
| 20260508025005 | 6 | 51 | 1.6 | 4.8 | 0.00 | 0.00 | 0.00 | 70 | 1013.4 |
| 20260508024514 | 6 | 70 | 0.0 | 4.8 | 0.00 | 0.00 | 0.00 | 69 | 1013.4 |
| 20260508024007 | 6 | 137 | 0.0 | 3.2 | 0.00 | 0.00 | 0.00 | 70 | 1013.4 |
| 20260508023508 | 6 | 137 | 0.0 | 0.0 | 0.00 | 0.00 | 0.00 | 69 | 1013.4 |
| 20260508023010 | 6 | 137 | 0.0 | 0.0 | 0.00 | 0.00 | 0.00 | 70 | 1013.5 |
| 20260508022506 | 6 | 137 | 0.0 | 0.0 | 0.00 | 0.00 | 0.00 | 69 | 1013.4 |
| 20260508022004 | 6 | 137 | 0.0 | 0.0 | 0.00 | 0.00 | 0.00 | 70 | 1013.5 |
| 20260508021515 | 6 | 137 | 0.0 | 0.0 | 0.00 | 0.00 | 0.00 | 70 | 1013.4 |
| 20260508021002 | 6 | 137 | 0.0 | 0.0 | 0.00 | 0.00 | 0.00 | 69 | 1013.3 |
| 20260508020505 | 6 | 137 | 0.0 | 0.0 | 0.00 | 0.00 | 0.00 | 70 | 1013.3 |
| 20260508020012 | 6 | 137 | 0.0 | 0.0 | 0.00 | 0.00 | 0.00 | 70 | 1013.3 |
| 20260508015502 | 6 | 137 | 0.0 | 0.0 | 0.00 | 0.00 | 0.00 | 69 | 1013.3 |
| 20260508015007 | 7 | 137 | 0.0 | 0.0 | 0.00 | 0.00 | 0.00 | 69 | 1013.3 |
| 20260508014517 | 7 | 137 | 0.0 | 1.6 | 0.00 | 0.00 | 0.00 | 69 | 1013.3 |
| 20260508014008 | 7 | 137 | 0.0 | 1.6 | 0.00 | 0.00 | 0.00 | 68 | 1013.2 |
| 20260508013502 | 7 | 137 | 0.0 | 1.6 | 0.00 | 0.00 | 0.00 | 67 | 1013.2 |
| 20260508013033 | 7 | 137 | 0.0 | 1.6 | 0.00 | 0.00 | 0.00 | 66 | 1013.2 |
| 20260508012508 | 7 | 137 | 0.0 | 0.0 | 0.00 | 0.00 | 0.00 | 65 | 1013.2 |
| 20260508012005 | 7 | 137 | 0.0 | 0.0 | 0.00 | 0.00 | 0.00 | 65 | 1013.2 |
| 20260508011516 | 7 | 137 | 0.0 | 0.0 | 0.00 | 0.00 | 0.00 | 64 | 1013.1 |
| 20260508011005 | 7 | 137 | 0.0 | 0.0 | 0.00 | 0.00 | 0.00 | 63 | 1013.0 |
| 20260508010509 | 8 | 137 | 0.0 | 0.0 | 0.00 | 0.00 | 0.00 | 63 | 1013.0 |
| 20260508010015 | 8 | 137 | 0.0 | 0.0 | 0.00 | 0.00 | 0.00 | 62 | 1013.0 |
| 20260508005505 | 8 | 137 | 0.0 | 1.6 | 0.00 | 0.00 | 0.00 | 62 | 1013.1 |
| 20260508005006 | 8 | 137 | 0.0 | 1.6 | 0.00 | 0.00 | 0.00 | 61 | 1013.0 |
| 20260508004527 | 8 | 137 | 0.0 | 1.6 | 0.00 | 0.00 | 0.00 | 61 | 1013.0 |
| 20260508004008 | 9 | 137 | 0.0 | 1.6 | 0.00 | 0.00 | 0.00 | 60 | 1012.9 |
| 20260508003511 | 9 | 137 | 0.0 | 3.2 | 0.00 | 0.00 | 0.00 | 59 | 1012.9 |
| 20260508003022 | 10 | 137 | 0.0 | 4.8 | 0.00 | 0.00 | 0.00 | 59 | 1012.9 |
| 20260508002504 | 10 | 137 | 0.0 | 4.8 | 0.00 | 0.00 | 0.00 | 57 | 1012.9 |
| 20260508002007 | 10 | 163 | 0.0 | 6.4 | 0.00 | 0.00 | 0.00 | 57 | 1012.8 |
| 20260508001521 | 10 | 163 | 0.0 | 6.4 | 0.00 | 0.00 | 0.00 | 57 | 1012.8 |
| 20260508001009 | 10 | 148 | 0.0 | 4.8 | 0.00 | 0.00 | 0.00 | 55 | 1012.7 |
| 20260508000504 | 10 | 148 | 1.6 | 8.0 | 0.00 | 0.00 | 0.00 | 57 | 1012.7 |
| 20260508000023 | 11 | 159 | 0.0 | 8.0 | 0.00 | 0.00 | 0.00 | 54 | 1012.6 |
| 20260507235507 | 11 | 131 | 0.0 | 6.4 | 0.00 | 0.00 | 0.00 | 57 | 1012.5 |
| 20260507235008 | 11 | 151 | 1.6 | 14.5 | 0.00 | 0.00 | 0.00 | 54 | 1012.4 |
| 20260507234512 | 11 | 141 | 1.6 | 14.5 | 0.00 | 0.00 | 0.00 | 54 | 1012.4 |
| 20260507234005 | 12 | 138 | 0.0 | 9.7 | 0.00 | 0.00 | 0.00 | 53 | 1012.3 |
| 20260507233504 | 12 | 140 | 0.0 | 14.5 | 0.00 | 0.00 | 0.00 | 52 | 1012.2 |
| 20260507233027 | 12 | 134 | 1.6 | 14.5 | 0.00 | 0.00 | 0.00 | 49 | 1012.2 |
| 20260507232510 | 12 | 157 | 3.2 | 14.5 | 0.00 | 0.00 | 0.00 | 51 | 1012.2 |
| 20260507232012 | 12 | 117 | 3.2 | 14.5 | 0.00 | 0.00 | 0.00 | 50 | 1012.2 |
| 20260507231521 | 12 | 84 | 1.6 | 14.5 | 0.00 | 0.00 | 0.00 | 50 | 1012.2 |
| 20260507231012 | 12 | 122 | 6.4 | 14.5 | 0.00 | 0.00 | 0.00 | 48 | 1012.3 |
| 20260507230510 | 13 | 126 | 1.6 | 12.9 | 0.00 | 0.00 | 0.00 | 49 | 1012.3 |
| 20260507230024 | 13 | 101 | 4.8 | 24.1 | 0.00 | 0.00 | 0.00 | 48 | 1012.3 |
| 20260507225507 | 13 | 124 | 4.8 | 25.7 | 0.00 | 0.00 | 0.00 | 46 | 1012.2 |
| 20260507225007 | 13 | 95 | 14.5 | 25.7 | 0.00 | 0.00 | 0.00 | 46 | 1012.2 |
| 20260507224531 | 13 | 95 | 14.5 | 24.1 | 0.00 | 0.00 | 0.00 | 43 | 1012.2 |
| 20260507224007 | 13 | 138 | 11.3 | 27.4 | 0.00 | 0.00 | 0.00 | 45 | 1012.3 |
| 20260507223504 | 13 | 147 | 9.7 | 27.4 | 0.00 | 0.00 | 0.00 | 45 | 1012.4 |
| 20260507223023 | 13 | 151 | 9.7 | 40.2 | 0.00 | 0.00 | 0.00 | 47 | 1012.3 |
| 20260507222505 | 13 | 100 | 11.3 | 40.2 | 0.00 | 0.00 | 0.00 | 46 | 1012.4 |
| 20260507222006 | 13 | 92 | 8.0 | 27.4 | 0.00 | 0.00 | 0.00 | 47 | 1012.3 |
| 20260507221520 | 13 | 123 | 9.7 | 32.2 | 0.00 | 0.00 | 0.00 | 47 | 1012.3 |
| 20260507221010 | 13 | 131 | 16.1 | 32.2 | 0.00 | 0.00 | 0.00 | 45 | 1012.3 |
| 20260507220510 | 13 | 110 | 14.5 | 32.2 | 0.00 | 0.00 | 0.00 | 48 | 1012.3 |
| 20260507220022 | 13 | 169 | 12.9 | 29.0 | 0.00 | 0.00 | 0.00 | 48 | 1012.2 |
| 20260507215506 | 13 | 158 | 9.7 | 22.5 | 0.00 | 0.00 | 0.00 | 49 | 1012.3 |
| 20260507215009 | 13 | 154 | 11.3 | 29.0 | 0.00 | 0.00 | 0.00 | 49 | 1012.2 |
| 20260507214509 | 13 | 107 | 12.9 | 29.0 | 0.00 | 0.00 | 0.00 | 48 | 1012.1 |
| 20260507214002 | 13 | 98 | 14.5 | 25.7 | 0.00 | 0.00 | 0.00 | 48 | 1012.0 |
| 20260507213503 | 13 | 131 | 6.4 | 20.9 | 0.00 | 0.00 | 0.00 | 52 | 1012.1 |
| 20260507213010 | 13 | 136 | 4.8 | 24.1 | 0.00 | 0.00 | 0.00 | 50 | 1012.0 |
| 20260507212501 | 13 | 74 | 14.5 | 25.7 | 0.00 | 0.00 | 0.00 | 47 | 1011.9 |
| 20260507212003 | 13 | 136 | 11.3 | 25.7 | 0.00 | 0.00 | 0.00 | 47 | 1011.9 |
| 20260507211504 | 14 | 134 | 11.3 | 24.1 | 0.00 | 0.00 | 0.00 | 46 | 1011.8 |
| 20260507211004 | 13 | 113 | 9.7 | 22.5 | 0.00 | 0.00 | 0.00 | 50 | 1011.8 |
| 20260507210502 | 13 | 119 | 9.7 | 27.4 | 0.00 | 0.00 | 0.00 | 53 | 1011.7 |
| 20260507210009 | 13 | 97 | 8.0 | 27.4 | 0.00 | 0.00 | 0.00 | 54 | 1011.6 |
| 20260507205503 | 13 | 115 | 9.7 | 27.4 | 0.00 | 0.00 | 0.00 | 53 | 1011.6 |
| 20260507205004 | 13 | 146 | 11.3 | 30.6 | 0.00 | 0.00 | 0.00 | 53 | 1011.7 |
| 20260507204504 | 13 | 161 | 14.5 | 30.6 | 0.00 | 0.00 | 0.00 | 51 | 1011.6 |
| 20260507204003 | 13 | 99 | 12.9 | 29.0 | 0.00 | 0.00 | 0.00 | 50 | 1011.6 |
| 20260507203505 | 15 | 169 | 9.7 | 27.4 | 0.00 | 0.00 | 0.00 | 49 | 1011.4 |
| 20260507203003 | 15 | 146 | 12.9 | 30.6 | 0.00 | 0.00 | 0.00 | 49 | 1011.3 |
| 20260507202503 | 15 | 130 | 12.9 | 30.6 | 0.00 | 0.00 | 0.00 | 48 | 1011.3 |
| 20260507202005 | 15 | 94 | 14.5 | 29.0 | 0.00 | 0.00 | 0.00 | 52 | 1011.5 |
| 20260507201512 | 14 | 129 | 8.0 | 25.7 | 0.00 | 0.00 | 0.00 | 52 | 1011.5 |
| 20260507201003 | 14 | 105 | 9.7 | 25.7 | 0.00 | 0.00 | 0.00 | 49 | 1011.5 |
| 20260507200504 | 15 | 143 | 9.7 | 27.4 | 0.00 | 0.00 | 0.00 | 50 | 1011.6 |
| 20260507200006 | 14 | 107 | 12.9 | 27.4 | 0.00 | 0.00 | 0.00 | 49 | 1011.5 |
| 20260507195502 | 13 | 112 | 4.8 | 22.5 | 0.00 | 0.00 | 0.00 | 52 | 1011.5 |
| 20260507195003 | 14 | 144 | 4.8 | 22.5 | 0.00 | 0.00 | 0.00 | 52 | 1011.6 |
| 20260507194504 | 15 | 146 | 8.0 | 24.1 | 0.00 | 0.00 | 0.00 | 48 | 1011.7 |
| 20260507194002 | 15 | 73 | 11.3 | 24.1 | 0.00 | 0.00 | 0.00 | 51 | 1011.8 |
| 20260507193502 | 14 | 63 | 8.0 | 27.4 | 0.00 | 0.00 | 0.00 | 48 | 1011.8 |
| 20260507193004 | 14 | 118 | 8.0 | 27.4 | 0.00 | 0.00 | 0.00 | 52 | 1011.9 |
| 20260507192504 | 14 | 128 | 11.3 | 27.4 | 0.00 | 0.00 | 0.00 | 51 | 1011.9 |
| 20260507192004 | 14 | 102 | 6.4 | 27.4 | 0.00 | 0.00 | 0.00 | 52 | 1011.9 |
| 20260507191503 | 15 | 153 | 8.0 | 22.5 | 0.00 | 0.00 | 0.00 | 50 | 1012.0 |
| 20260507191004 | 14 | 118 | 8.0 | 25.7 | 0.00 | 0.00 | 0.00 | 52 | 1012.0 |
| 20260507190503 | 14 | 105 | 11.3 | 25.7 | 0.00 | 0.00 | 0.00 | 50 | 1011.9 |
| 20260507190016 | 13 | 125 | 12.9 | 24.1 | 0.00 | 0.00 | 0.00 | 52 | 1012.0 |
| 20260507185502 | 13 | 111 | 12.9 | 24.1 | 0.00 | 0.00 | 0.00 | 50 | 1012.0 |
| 20260507185008 | 14 | 90 | 11.3 | 35.4 | 0.00 | 0.00 | 0.00 | 48 | 1011.9 |
| 20260507184514 | 14 | 123 | 11.3 | 35.4 | 0.00 | 0.00 | 0.00 | 49 | 1012.0 |
| 20260507184003 | 14 | 90 | 12.9 | 29.0 | 0.00 | 0.00 | 0.00 | 48 | 1011.9 |
| 20260507183502 | 14 | 161 | 3.2 | 20.9 | 0.00 | 0.00 | 0.00 | 58 | 1011.9 |
| 20260507183004 | 15 | 145 | 8.0 | 24.1 | 0.00 | 0.00 | 0.00 | 51 | 1012.0 |
| 20260507182504 | 15 | 74 | 16.1 | 24.1 | 0.00 | 0.00 | 0.00 | 48 | 1012.0 |
| 20260507182004 | 14 | 90 | 12.9 | 20.9 | 0.00 | 0.00 | 0.00 | 53 | 1012.0 |
| 20260507181510 | 13 | 123 | 3.2 | 22.5 | 0.00 | 0.00 | 0.00 | 54 | 1012.0 |
| 20260507181006 | 13 | 129 | 4.8 | 25.7 | 0.00 | 0.00 | 0.00 | 52 | 1012.0 |
| 20260507180509 | 14 | 82 | 11.3 | 29.0 | 0.00 | 0.00 | 0.00 | 50 | 1012.0 |
| 20260507180008 | 13 | 101 | 8.0 | 29.0 | 0.00 | 0.00 | 0.00 | 55 | 1012.0 |
| 20260507175503 | 13 | 132 | 6.4 | 24.1 | 0.00 | 0.00 | 0.00 | 52 | 1012.1 |
| 20260507175007 | 13 | 76 | 16.1 | 24.1 | 0.00 | 0.00 | 0.00 | 49 | 1012.0 |
| 20260507174503 | 14 | 107 | 9.7 | 24.1 | 0.00 | 0.00 | 0.00 | 49 | 1012.0 |
| 20260507174003 | 14 | 138 | 9.7 | 25.7 | 0.00 | 0.00 | 0.00 | 52 | 1012.1 |
| 20260507173507 | 14 | 117 | 9.7 | 25.7 | 0.00 | 0.00 | 0.00 | 57 | 1012.2 |
| 20260507173031 | 14 | 109 | 9.7 | 20.9 | 0.00 | 0.00 | 0.00 | 53 | 1012.1 |
| 20260507172503 | 14 | 139 | 8.0 | 22.5 | 0.00 | 0.00 | 0.00 | 55 | 1012.1 |
| 20260507172004 | 14 | 132 | 14.5 | 24.1 | 0.00 | 0.00 | 0.00 | 50 | 1012.2 |
| 20260507171503 | 14 | 52 | 14.5 | 24.1 | 0.00 | 0.00 | 0.00 | 48 | 1012.2 |
| 20260507171002 | 14 | 148 | 4.8 | 29.0 | 0.00 | 0.00 | 0.00 | 54 | 1012.3 |
| 20260507170504 | 14 | 83 | 17.7 | 29.0 | 0.00 | 0.00 | 0.00 | 49 | 1012.2 |
| 20260507170015 | 14 | 38 | 12.9 | 20.9 | 0.00 | 0.00 | 0.00 | 51 | 1012.3 |
| 20260507165505 | 14 | 94 | 8.0 | 27.4 | 0.00 | 0.00 | 0.00 | 52 | 1012.3 |
| 20260507165003 | 14 | 157 | 3.2 | 27.4 | 0.00 | 0.00 | 0.00 | 58 | 1012.4 |
| 20260507164512 | 13 | 107 | 9.7 | 30.6 | 0.00 | 0.00 | 0.00 | 51 | 1012.4 |
| 20260507164007 | 13 | 71 | 17.7 | 30.6 | 0.00 | 0.00 | 0.00 | 48 | 1012.3 |
| 20260507163506 | 13 | 128 | 8.0 | 29.0 | 0.00 | 0.00 | 0.00 | 53 | 1012.4 |
| 20260507163009 | 13 | 90 | 6.4 | 25.7 | 0.00 | 0.00 | 0.00 | 52 | 1012.3 |
| 20260507162503 | 13 | 132 | 14.5 | 25.7 | 0.00 | 0.00 | 0.00 | 48 | 1012.4 |
| 20260507162009 | 13 | 105 | 14.5 | 25.7 | 0.00 | 0.00 | 0.00 | 54 | 1012.4 |
| 20260507161523 | 13 | 112 | 14.5 | 30.6 | 0.00 | 0.00 | 0.00 | 46 | 1012.4 |
| 20260507161000 | 13 | 84 | 12.9 | 30.6 | 0.00 | 0.00 | 0.00 | 49 | 1012.3 |
| 20260507160502 | 13 | 114 | 8.0 | 22.5 | 0.00 | 0.00 | 0.00 | 59 | 1012.3 |
| 20260507160008 | 13 | 22 | 6.4 | 22.5 | 0.00 | 0.00 | 0.00 | 54 | 1012.3 |
| 20260507155506 | 13 | 139 | 8.0 | 22.5 | 0.00 | 0.00 | 0.00 | 54 | 1012.4 |
| 20260507155003 | 12 | 107 | 6.4 | 32.2 | 0.00 | 0.00 | 0.00 | 51 | 1012.3 |
| 20260507154527 | 12 | 69 | 14.5 | 32.2 | 0.00 | 0.00 | 0.00 | 52 | 1012.4 |
| 20260507154009 | 12 | 58 | 8.0 | 20.9 | 0.00 | 0.00 | 0.00 | 54 | 1012.4 |
| 20260507153504 | 12 | 61 | 8.0 | 22.5 | 0.00 | 0.00 | 0.00 | 52 | 1012.4 |
| 20260507153030 | 12 | 123 | 11.3 | 24.1 | 0.00 | 0.00 | 0.00 | 51 | 1012.4 |
| 20260507152507 | 12 | 107 | 4.8 | 24.1 | 0.00 | 0.00 | 0.00 | 58 | 1012.5 |
| 20260507152009 | 12 | 63 | 11.3 | 22.5 | 0.00 | 0.00 | 0.00 | 53 | 1012.4 |
| 20260507151512 | 12 | 148 | 4.8 | 19.3 | 0.00 | 0.00 | 0.00 | 54 | 1012.4 |
| 20260507151006 | 12 | 96 | 9.7 | 19.3 | 0.00 | 0.00 | 0.00 | 54 | 1012.4 |
| 20260507150510 | 12 | 105 | 11.3 | 24.1 | 0.00 | 0.00 | 0.00 | 59 | 1012.6 |
| 20260507150008 | 12 | 71 | 12.9 | 24.1 | 0.00 | 0.00 | 0.00 | 53 | 1012.6 |
| 20260507145508 | 12 | 141 | 11.3 | 27.4 | 0.00 | 0.00 | 0.00 | 56 | 1012.5 |
| 20260507145007 | 12 | 97 | 11.3 | 27.4 | 0.00 | 0.00 | 0.00 | 56 | 1012.7 |
| 20260507144510 | 12 | 113 | 12.9 | 24.1 | 0.00 | 0.00 | 0.00 | 56 | 1012.8 |
| 20260507144003 | 12 | 98 | 11.3 | 24.1 | 0.00 | 0.00 | 0.00 | 58 | 1012.7 |
| 20260507143505 | 12 | 86 | 8.0 | 20.9 | 0.00 | 0.00 | 0.00 | 60 | 1012.7 |
| 20260507143022 | 12 | 133 | 4.8 | 20.9 | 0.00 | 0.00 | 0.00 | 66 | 1012.7 |
| 20260507142507 | 11 | 96 | 11.3 | 27.4 | 0.00 | 0.00 | 0.00 | 61 | 1012.7 |
| 20260507142006 | 11 | 71 | 12.9 | 27.4 | 0.00 | 0.00 | 0.00 | 61 | 1012.7 |
| 20260507141521 | 11 | 76 | 12.9 | 27.4 | 0.00 | 0.00 | 0.00 | 62 | 1012.8 |
| 20260507141008 | 11 | 50 | 9.7 | 19.3 | 0.00 | 0.00 | 0.00 | 65 | 1012.9 |
| 20260507140504 | 11 | 118 | 11.3 | 19.3 | 0.00 | 0.00 | 0.00 | 62 | 1012.9 |
| 20260507140016 | 11 | 40 | 4.8 | 19.3 | 0.00 | 0.00 | 0.00 | 67 | 1013.0 |
| 20260507135509 | 11 | 89 | 8.0 | 19.3 | 0.00 | 0.00 | 0.00 | 68 | 1013.1 |
| 20260507135011 | 11 | 113 | 4.8 | 14.5 | 0.00 | 0.00 | 0.00 | 68 | 1013.2 |
| 20260507134515 | 10 | 110 | 6.4 | 14.5 | 0.00 | 0.00 | 0.00 | 67 | 1013.2 |
| 20260507134006 | 10 | 117 | 8.0 | 14.5 | 0.00 | 0.00 | 0.00 | 68 | 1013.2 |
| 20260507133510 | 10 | 127 | 3.2 | 16.1 | 0.00 | 0.00 | 0.00 | 72 | 1013.3 |
| 20260507133012 | 10 | 63 | 9.7 | 16.1 | 0.00 | 0.00 | 0.00 | 74 | 1013.3 |
| 20260507132503 | 10 | 138 | 4.8 | 12.9 | 0.00 | 0.00 | 0.00 | 74 | 1013.3 |
| 20260507132007 | 10 | 91 | 1.6 | 16.1 | 0.00 | 0.00 | 0.00 | 75 | 1013.3 |
| 20260507131519 | 9 | 119 | 9.7 | 16.1 | 0.00 | 0.00 | 0.00 | 73 | 1013.3 |
| 20260507131003 | 9 | 122 | 3.2 | 16.1 | 0.00 | 0.00 | 0.00 | 77 | 1013.2 |
| 20260507130505 | 8 | 127 | 6.4 | 16.1 | 0.00 | 0.00 | 0.00 | 76 | 1013.3 |
| 20260507130035 | 8 | 103 | 6.4 | 16.1 | 0.00 | 0.00 | 0.00 | 77 | 1013.2 |
| 20260507125510 | 8 | 48 | 9.7 | 16.1 | 0.00 | 0.00 | 0.00 | 79 | 1013.2 |
| 20260507125008 | 8 | 52 | 8.0 | 16.1 | 0.00 | 0.00 | 0.00 | 80 | 1013.2 |
| 20260507124501 | 7 | 64 | 4.8 | 16.1 | 0.00 | 0.00 | 0.00 | 81 | 1013.3 |
| 20260507124001 | 7 | 45 | 6.4 | 12.9 | 0.00 | 0.00 | 0.00 | 83 | 1013.3 |
| 20260507123501 | 7 | 122 | 6.4 | 14.5 | 0.00 | 0.00 | 0.00 | 83 | 1013.2 |
| 20260507123002 | 6 | 101 | 4.8 | 14.5 | 0.00 | 0.00 | 0.00 | 84 | 1013.2 |
| 20260507122502 | 6 | 100 | 6.4 | 12.9 | 0.00 | 0.00 | 0.00 | 87 | 1013.3 |
| 20260507122006 | 5 | 82 | 4.8 | 14.5 | 0.00 | 0.00 | 0.00 | 88 | 1013.2 |
| 20260507121516 | 5 | 30 | 8.0 | 14.5 | 0.00 | 0.00 | 0.00 | 89 | 1013.1 |
| 20260507121002 | 5 | 63 | 4.8 | 12.9 | 0.00 | 0.00 | 0.00 | 90 | 1013.1 |
| 20260507120504 | 5 | 57 | 3.2 | 9.7 | 0.00 | 0.00 | 0.00 | 90 | 1013.2 |
| 20260507120020 | 5 | 66 | 3.2 | 8.0 | 0.00 | 0.00 | 0.00 | 92 | 1013.2 |
| 20260507115503 | 4 | 71 | 3.2 | 8.0 | 0.00 | 0.00 | 0.00 | 93 | 1013.3 |
| 20260507115001 | 4 | 66 | 3.2 | 6.4 | 0.00 | 0.00 | 0.00 | 94 | 1013.4 |
| 20260507114503 | 4 | 13 | 0.0 | 4.8 | 0.00 | 0.00 | 0.00 | 94 | 1013.3 |
| 20260507114005 | 3 | 13 | 1.6 | 4.8 | 0.00 | 0.00 | 0.00 | 94 | 1013.2 |
| 20260507113503 | 3 | 13 | 0.0 | 3.2 | 0.00 | 0.00 | 0.00 | 94 | 1013.3 |
| 20260507113006 | 3 | 13 | 0.0 | 3.2 | 0.00 | 0.00 | 0.00 | 94 | 1013.2 |
| 20260507112502 | 3 | 13 | 0.0 | 3.2 | 0.00 | 0.00 | 0.00 | 94 | 1013.2 |
| 20260507112002 | 3 | 13 | 0.0 | 1.6 | 0.00 | 0.00 | 0.00 | 94 | 1013.1 |
| 20260507111503 | 3 | 13 | 0.0 | 3.2 | 0.00 | 0.00 | 0.00 | 94 | 1013.2 |
| 20260507111003 | 3 | 13 | 0.0 | 4.8 | 0.00 | 0.00 | 0.00 | 94 | 1013.2 |
| 20260507110506 | 3 | 13 | 1.6 | 4.8 | 0.00 | 0.00 | 0.00 | 94 | 1013.1 |
| 20260507110016 | 3 | 343 | 0.0 | 3.2 | 0.00 | 0.00 | 0.00 | 94 | 1013.0 |
| 20260507105502 | 3 | 343 | 0.0 | 4.8 | 0.00 | 0.00 | 0.00 | 94 | 1012.9 |
| 20260507105002 | 3 | 343 | 0.0 | 4.8 | 0.00 | 0.00 | 0.00 | 94 | 1012.9 |
| 20260507104518 | 3 | 343 | 0.0 | 4.8 | 0.00 | 0.00 | 0.00 | 94 | 1012.8 |
| 20260507104009 | 3 | 343 | 0.0 | 4.8 | 0.00 | 0.00 | 0.00 | 94 | 1012.8 |
| 20260507103501 | 3 | 342 | 0.0 | 4.8 | 0.00 | 0.00 | 0.00 | 94 | 1012.8 |
| 20260507103005 | 3 | 342 | 0.0 | 4.8 | 0.00 | 0.00 | 0.00 | 93 | 1012.8 |
| 20260507102503 | 3 | 342 | 0.0 | 3.2 | 0.00 | 0.00 | 0.00 | 93 | 1012.8 |
| 20260507102003 | 3 | 355 | 0.0 | 3.2 | 0.00 | 0.00 | 0.00 | 93 | 1012.7 |
| 20260507101507 | 3 | 355 | 0.0 | 4.8 | 0.00 | 0.00 | 0.00 | 93 | 1012.7 |
| 20260507101002 | 3 | 355 | 1.6 | 4.8 | 0.00 | 0.00 | 0.00 | 93 | 1012.8 |
| 20260507100505 | 3 | 355 | 0.0 | 4.8 | 0.00 | 0.00 | 0.00 | 93 | 1012.7 |
| 20260507100006 | 3 | 360 | 0.0 | 0.0 | 0.00 | 0.03 | 0.00 | 93 | 1012.7 |
| 20260507095506 | 3 | 360 | 0.0 | 0.0 | 0.00 | 0.03 | 0.00 | 93 | 1012.6 |
| 20260507095006 | 3 | 360 | 0.0 | 0.0 | 0.00 | 0.05 | 0.00 | 93 | 1012.6 |
| 20260507094516 | 3 | 360 | 0.0 | 0.0 | 0.00 | 0.05 | 0.00 | 93 | 1012.6 |
| 20260507094002 | 3 | 360 | 0.0 | 0.0 | 0.00 | 0.08 | 0.00 | 92 | 1012.6 |
| 20260507093507 | 3 | 360 | 0.0 | 0.0 | 0.00 | 0.10 | 0.00 | 92 | 1012.7 |
| 20260507093025 | 3 | 12 | 0.0 | 3.2 | 0.00 | 0.10 | 0.00 | 92 | 1012.7 |
| 20260507092503 | 3 | 12 | 0.0 | 4.8 | 0.00 | 0.13 | 0.00 | 92 | 1012.7 |
| 20260507092003 | 3 | 12 | 0.0 | 4.8 | 0.00 | 0.15 | 0.00 | 92 | 1012.7 |
| 20260507091503 | 3 | 9 | 0.0 | 4.8 | 0.00 | 0.18 | 0.00 | 92 | 1012.8 |
| 20260507091004 | 3 | 9 | 1.6 | 3.2 | 0.00 | 0.20 | 0.00 | 92 | 1012.8 |
| 20260507090503 | 3 | 9 | 0.0 | 3.2 | 0.00 | 0.23 | 0.00 | 92 | 1012.7 |
| 20260507090010 | 3 | 9 | 1.6 | 4.8 | 0.00 | 0.25 | 0.00 | 91 | 1012.8 |
| 20260507085503 | 3 | 9 | 0.0 | 4.8 | 0.00 | 0.28 | 0.00 | 91 | 1012.8 |
| 20260507085006 | 3 | 21 | 1.6 | 4.8 | 0.00 | 0.28 | 0.00 | 91 | 1012.7 |
| 20260507084510 | 3 | 22 | 1.6 | 4.8 | 0.00 | 0.30 | 0.00 | 91 | 1012.7 |
| 20260507084006 | 3 | 28 | 3.2 | 4.8 | 0.00 | 0.30 | 0.00 | 91 | 1012.7 |
| 20260507083507 | 3 | 14 | 1.6 | 4.8 | 0.00 | 0.30 | 0.00 | 91 | 1012.8 |
| 20260507083008 | 3 | 12 | 1.6 | 4.8 | 0.00 | 0.30 | 0.00 | 90 | 1012.8 |
| 20260507082504 | 3 | 14 | 0.0 | 3.2 | 0.00 | 0.30 | 0.00 | 90 | 1012.8 |
| 20260507082009 | 4 | 331 | 0.0 | 3.2 | 0.00 | 0.33 | 0.00 | 90 | 1012.8 |
| 20260507081523 | 4 | 299 | 0.0 | 3.2 | 0.00 | 0.36 | 0.00 | 90 | 1012.8 |
| 20260507081003 | 4 | 298 | 0.0 | 3.2 | 0.00 | 0.38 | 0.00 | 89 | 1012.9 |
| 20260507080507 | 4 | 298 | 0.0 | 3.2 | 0.00 | 0.41 | 0.00 | 89 | 1012.9 |
| 20260507080027 | 4 | 291 | 0.0 | 1.6 | 0.00 | 0.46 | 0.00 | 88 | 1012.9 |
| 20260507075503 | 4 | 291 | 0.0 | 1.6 | 0.00 | 0.51 | 0.00 | 88 | 1012.9 |